Location: Cambridge (historical)
(38.6883°N, 119.0140°W)
Time: 17:29:15
(UTC+00:00)

ADEOS - Pass Details

Date: 29 October 2020
Orbit: 793 x 793 km, 98.9° (Epoch: 22 November)

Event Time Altitude Azimuth Distance (km) Brightness Sun altitude
Rises 12:40:51 0° 11° (N) 3,302 6.9 -19.9°
Reaches altitude 10° 12:43:12 10° 9° (N) 2,369 6.1 -19.5°
Maximum altitude 12:48:24 72° 286° (WNW) 837 3.4 -18.5°
Drops below altitude 10° 12:53:34 10° 203° (SSW) 2,353 5.8 -17.5°
Sets 12:55:53 0° 201° (SSW) 3,279 6.6 -17.0°
